EW4964 Weather Reports


time (UTC)temp
C
wind
direction
speed
KPH
gust
KPH
rain 1hr
cm
rain 24hr
cm
rain mn
cm
humidity
%
barometer
mb
20260507021505 9 45 1.6 3.2 0.00 0.00 0.00 58 1011.6
20260507020004 9 45 1.6 6.4 0.00 0.00 0.00 59 1011.6
20260507014505 9 19 1.6 6.4 0.00 0.00 0.00 59 1011.2
20260507013007 9 5 3.2 4.8 0.00 0.00 0.00 59 1011.4
20260507011504 9 355 1.6 6.4 0.00 0.00 0.00 57 1011.4
20260507010005 10 338 3.2 6.4 0.00 0.00 0.00 57 1011.0
20260507004504 10 284 3.2 6.4 0.00 0.00 0.00 57 1011.1
20260507003005 10 327 3.2 6.4 0.00 0.00 0.00 59 1011.0
20260507001504 10 90 4.8 11.3 0.00 0.00 0.00 58 1010.8
20260507000004 10 90 6.4 14.5 0.00 0.00 0.00 59 1010.6
20260506234505 10 90 6.4 12.9 0.00 0.00 0.00 60 1010.3
20260506233005 10 66 8.0 19.3 0.00 0.00 0.00 59 1010.2
20260506231507 10 45 8.0 17.7 0.00 0.00 0.00 57 1010.1
20260506230008 10 45 9.7 19.3 0.00 0.00 0.00 54 1010.3
20260506224507 10 65 12.9 25.7 0.00 0.00 0.00 52 1009.8
20260506223008 11 9 6.4 12.9 0.00 0.00 0.00 47 1009.9
20260506221508 12 277 6.4 12.9 0.00 0.00 0.00 44 1009.5
20260506220010 12 253 4.8 9.7 0.00 0.00 0.00 43 1009.5
20260506214507 13 185 6.4 12.9 0.00 0.00 0.00 42 1009.4
20260506213007 13 217 6.4 12.9 0.00 0.00 0.00 42 1009.2
20260506210008 12 181 6.4 11.3 0.00 0.00 0.00 43 1009.0
20260506204507 12 175 3.2 6.4 0.00 0.00 0.00 42 1009.1
20260506203008 13 153 1.6 6.4 0.00 0.00 0.00 41 1009.2
20260506201507 13 258 3.2 6.4 0.00 0.00 0.00 41 1009.3
20260506200008 13 148 3.2 8.0 0.00 0.00 0.00 39 1009.2
20260506194507 13 165 4.8 8.0 0.00 0.00 0.00 39 1009.0
20260506193008 14 225 3.2 6.4 0.00 0.00 0.00 38 1009.2
20260506190008 15 248 4.8 11.3 0.00 0.00 0.00 37 1008.8
20260506181508 15 225 8.0 16.1 0.00 0.00 0.00 34 1008.7
20260506180007 16 214 9.7 20.9 0.00 0.00 0.00 33 1008.7
20260506174507 16 270 9.7 22.5 0.00 0.00 0.00 31 1008.6
20260506173007 17 220 11.3 25.7 0.00 0.00 0.00 31 1008.7
20260506171508 17 208 11.3 24.1 0.00 0.00 0.00 28 1008.7
20260506170007 18 229 12.9 24.1 0.00 0.00 0.00 27 1008.6
20260506164507 20 174 11.3 19.3 0.00 0.00 0.00 26 1008.6
20260506163007 20 191 9.7 17.7 0.00 0.00 0.00 27 1008.9
20260506161507 19 217 14.5 27.4 0.00 0.00 0.00 27 1009.0
20260506160006 19 191 14.5 22.5 0.00 0.00 0.00 27 1009.0
20260506154507 19 188 11.3 24.1 0.00 0.00 0.00 27 1009.4
20260506153007 18 207 12.9 22.5 0.00 0.00 0.00 28 1009.5
20260506151507 20 164 11.3 24.1 0.00 0.00 0.00 27 1009.4
20260506150007 20 215 11.3 17.7 0.00 0.00 0.00 29 1009.7
20260506144507 19 213 11.3 17.7 0.00 0.00 0.00 28 1010.0
20260506143007 18 193 11.3 22.5 0.00 0.00 0.00 28 1010.2
20260506141506 19 174 9.7 19.3 0.00 0.00 0.00 29 1010.2
20260506134506 18 256 11.3 30.6 0.00 0.00 0.00 28 1010.3
20260506133006 18 196 8.0 12.9 0.00 0.00 0.00 27 1010.6
20260506131507 18 237 9.7 17.7 0.00 0.00 0.00 27 1010.6
20260506130006 18 249 9.7 17.7 0.00 0.00 0.00 27 1010.9
20260506124507 17 228 8.0 17.7 0.00 0.00 0.00 28 1011.1
20260506123007 18 276 6.4 9.7 0.00 0.00 0.00 28 1011.2
20260506121507 18 286 6.4 16.1 0.00 0.00 0.00 28 1011.2
20260506120006 19 248 8.0 16.1 0.00 0.00 0.00 27 1011.4
20260506114506 19 256 6.4 14.5 0.00 0.00 0.00 27 1011.3
20260506113006 19 299 4.8 9.7 0.00 0.00 0.00 29 1011.4
20260506111506 19 296 6.4 16.1 0.00 0.00 0.00 27 1011.6
20260506104506 19 269 6.4 12.9 0.00 0.00 0.00 28 1011.9
20260506101506 18 276 8.0 14.5 0.00 0.00 0.00 31 1011.9
20260506100006 17 291 6.4 12.9 0.00 0.00 0.00 31 1012.0
20260506094506 17 272 6.4 17.7 0.00 0.00 0.00 31 1012.1
20260506091506 17 270 8.0 16.1 0.00 0.00 0.00 32 1011.9
20260506090006 16 277 6.4 14.5 0.00 0.00 0.00 35 1011.9
20260506084506 15 343 9.7 17.7 0.00 0.00 0.00 37 1012.1
20260506073006 13 292 8.0 17.7 0.00 0.00 0.00 41 1011.8
20260506071505 13 335 8.0 16.1 0.00 0.00 0.00 42 1011.6
20260506061505 12 328 6.4 22.5 0.00 0.00 0.00 46 1011.6
20260506044505 10 339 8.0 12.9 0.00 0.00 0.00 72 1011.1
20260506043005 10 342 4.8 9.7 0.00 0.00 0.00 72 1010.8
20260506040006 10 1 4.8 8.0 0.00 0.00 0.00 69 1010.7
20260506031505 10 1 3.2 11.3 0.00 0.00 0.00 64 1010.7
20260506030005 10 1 3.2 6.4 0.00 0.00 0.00 62 1010.6
20260506024505 10 1 1.6 4.8 0.00 0.00 0.00 61 1010.5
20260506023004 10 1 1.6 3.2 0.00 0.00 0.00 61 1010.4